• In Hungary
  • List of Countries
  • For 7 days
  • Water Temperature
  • Satellite Maps
  • Weather Map
  • News
  • Weather Widgets
  • user-avatar
    Login

    Hourly Weather Ahtopol

    Today, 24 October, Tuesday

    Time Temperature Precipitation Wind Pressure Humidity
    00:00 +17°C° 0.1 mm 3 mps 750 mmHg 74%
    01:00 +17°C° 0.1 mm 3 mps 750 mmHg 74%
    02:00 +17°C° 0.1 mm 3 mps 750 mmHg 74%
    03:00 +17°C° 0.5 mm 4 mps 750 mmHg 77%
    04:00 +17°C° 0.5 mm 4 mps 749 mmHg 80%
    05:00 +17°C° 0.5 mm 4 mps 749 mmHg 84%
    06:00 +16°C° 0.6 mm 5 mps 749 mmHg 82%
    07:00 +16°C° 0.6 mm 5 mps 750 mmHg 81%
    08:00 +17°C° 0.6 mm 6 mps 750 mmHg 79%
    09:00 +19°C° 0.1 mm 6 mps 750 mmHg 73%
    10:00 +20°C° 0.1 mm 6 mps 750 mmHg 67%
    11:00 +21°C° 0.1 mm 6 mps 751 mmHg 61%
    12:00 +21°C° 0.3 mm 6 mps 751 mmHg 59%
    13:00 +22°C° 0.3 mm 7 mps 752 mmHg 57%
    14:00 +22°C° 0.3 mm 7 mps 752 mmHg 56%
    15:00 +21°C° 0.5 mm 6 mps 752 mmHg 61%
    16:00 +20°C° 0.5 mm 6 mps 752 mmHg 67%
    17:00 +19°C° 0.5 mm 5 mps 753 mmHg 72%
    18:00 +17°C° 0.8 mm 5 mps 753 mmHg 76%
    19:00 +18°C° 0.8 mm 4 mps 754 mmHg 79%
    20:00 +17°C° 0.8 mm 4 mps 755 mmHg 83%
    21:00 +17°C° 0.9 mm 4 mps 755 mmHg 83%
    22:00 +17°C° 0.9 mm 4 mps 756 mmHg 84%
    23:00 +17°C° 0.9 mm 4 mps 756 mmHg 85%

    Tomorrow, 25 October, Wednesday

    Time Temperature Precipitation Wind Pressure Humidity
    00:00 +16°C° 0.9 mm 5 mps 757 mmHg 86%
    01:00 +16°C° 0.9 mm 5 mps 757 mmHg 87%
    02:00 +16°C° 0.9 mm 5 mps 758 mmHg 88%
    03:00 +15°C° 2.6 mm 6 mps 758 mmHg 88%
    04:00 +15°C° 2.6 mm 7 mps 758 mmHg 88%
    05:00 +13°C° 2.6 mm 8 mps 759 mmHg 88%
    06:00 +12°C° 2.7 mm 8 mps 759 mmHg 88%
    07:00 +12°C° 2.7 mm 9 mps 760 mmHg 87%
    08:00 +11°C° 2.7 mm 9 mps 761 mmHg 86%
    09:00 +10°C° 0.8 mm 9 mps 761 mmHg 85%
    10:00 +10°C° 0.8 mm 9 mps 762 mmHg 84%
    11:00 +8°C° 0.8 mm 10 mps 763 mmHg 83%
    12:00 +8°C° 0.4 mm 9 mps 763 mmHg 83%
    13:00 +8°C° 0.4 mm 9 mps 763 mmHg 83%
    14:00 +8°C° 0.4 mm 9 mps 764 mmHg 84%
    15:00 +8°C° 0.2 mm 9 mps 764 mmHg 83%
    16:00 +8°C° 0.2 mm 9 mps 764 mmHg 83%
    17:00 +8°C° 0.2 mm 9 mps 765 mmHg 82%
    18:00 +8°C° 0.1 mm 9 mps 765 mmHg 81%
    19:00 +9°C° 0.1 mm 8 mps 766 mmHg 80%
    20:00 +7°C° 0.1 mm 8 mps 766 mmHg 79%
    21:00 +7°C° 0 mm 8 mps 766 mmHg 77%
    22:00 +7°C° 0 mm 8 mps 767 mmHg 76%
    23:00 +8°C° 0 mm 7 mps 767 mmHg 74%

    Day after tomorrow, 26 October, Thursday

    Time Temperature Precipitation Wind Pressure Humidity
    00:00 +8°C° 0 mm 7 mps 767 mmHg 75%
    01:00 +7°C° 0 mm 6 mps 767 mmHg 76%
    02:00 +7°C° 0 mm 6 mps 767 mmHg 78%
    03:00 +7°C° 0 mm 6 mps 768 mmHg 79%
    04:00 +5°C° 0 mm 6 mps 768 mmHg 80%
    05:00 +5°C° 0 mm 6 mps 768 mmHg 81%
    06:00 +6°C° 0 mm 5 mps 768 mmHg 80%
    07:00 +7°C° 0 mm 5 mps 768 mmHg 80%
    08:00 +7°C° 0 mm 5 mps 769 mmHg 80%
    09:00 +9°C° 0 mm 5 mps 769 mmHg 75%
    10:00 +12°C° 0 mm 4 mps 769 mmHg 70%
    11:00 +13°C° 0 mm 4 mps 769 mmHg 65%
    12:00 +14°C° 0 mm 3 mps 768 mmHg 63%
    13:00 +16°C° 0 mm 3 mps 768 mmHg 61%
    14:00 +17°C° 0 mm 2 mps 768 mmHg 58%
    15:00 +16°C° 0 mm 2 mps 767 mmHg 62%
    16:00 +15°C° 0 mm 1 mps 767 mmHg 66%
    17:00 +14°C° 0 mm 1 mps 767 mmHg 70%
    18:00 +14°C° 0 mm 1 mps 767 mmHg 73%
    19:00 +13°C° 0 mm 1 mps 767 mmHg 76%
    20:00 +12°C° 0 mm 1 mps 767 mmHg 79%
    21:00 +12°C° 0 mm 1 mps 767 mmHg 80%
    22:00 +12°C° 0 mm 1 mps 767 mmHg 81%
    23:00 +12°C° 0 mm 1 mps 767 mmHg 82%

    27 October, Friday

    Time Temperature Precipitation Wind Pressure Humidity
    00:00 +11°C° 0 mm 1 mps 767 mmHg 83%
    01:00 +11°C° 0 mm 1 mps 766 mmHg 84%
    02:00 +11°C° 0 mm 1 mps 766 mmHg 84%
    03:00 +11°C° 0 mm 1 mps 766 mmHg 85%
    04:00 +11°C° 0 mm 1 mps 765 mmHg 85%
    05:00 +10°C° 0 mm 1 mps 765 mmHg 85%
    06:00 +11°C° 0 mm 1 mps 765 mmHg 83%
    07:00 +12°C° 0 mm 1 mps 765 mmHg 81%
    08:00 +12°C° 0 mm 1 mps 765 mmHg 78%
    09:00 +14°C° 0 mm 2 mps 764 mmHg 71%
    10:00 +16°C° 0 mm 2 mps 764 mmHg 63%
    11:00 +18°C° 0 mm 2 mps 763 mmHg 56%
    12:00 +19°C° 0 mm 2 mps 763 mmHg 53%
    13:00 +19°C° 0 mm 2 mps 762 mmHg 50%
    14:00 +20°C° 0 mm 2 mps 761 mmHg 47%
    15:00 +19°C° 0 mm 2 mps 760 mmHg 51%
    16:00 +18°C° 0 mm 2 mps 760 mmHg 56%
    17:00 +17°C° 0 mm 2 mps 759 mmHg 60%
    18:00 +16°C° 0 mm 2 mps 759 mmHg 62%
    19:00 +14°C° 0 mm 3 mps 759 mmHg 65%
    20:00 +14°C° 0 mm 3 mps 758 mmHg 67%
    21:00 +13°C° 0 mm 3 mps 758 mmHg 68%
    22:00 +13°C° 0 mm 3 mps 758 mmHg 69%
    23:00 +12°C° 0 mm 3 mps 757 mmHg 69%

    28 October, Saturday

    Time Temperature Precipitation Wind Pressure Humidity
    00:00 +12°C° 0 mm 3 mps 756 mmHg 69%
    01:00 +12°C° 0 mm 3 mps 756 mmHg 70%
    02:00 +12°C° 0 mm 3 mps 755 mmHg 70%
    03:00 +12°C° 0 mm 3 mps 755 mmHg 71%
    04:00 +11°C° 0 mm 3 mps 754 mmHg 72%
    05:00 +11°C° 0 mm 3 mps 754 mmHg 72%
    06:00 +12°C° 0 mm 3 mps 754 mmHg 71%
    07:00 +12°C° 0 mm 3 mps 754 mmHg 70%
    08:00 +13°C° 0 mm 3 mps 754 mmHg 69%
    09:00 +14°C° 0 mm 4 mps 754 mmHg 66%
    10:00 +15°C° 0 mm 4 mps 754 mmHg 64%
    11:00 +16°C° 0 mm 5 mps 755 mmHg 61%
    12:00 +15°C° 0.2 mm 5 mps 755 mmHg 63%
    13:00 +15°C° 0.2 mm 6 mps 754 mmHg 65%
    14:00 +14°C° 0.2 mm 6 mps 754 mmHg 67%
    15:00 +14°C° 0 mm 5 mps 754 mmHg 67%
    16:00 +13°C° 0 mm 4 mps 755 mmHg 66%
    17:00 +13°C° 0 mm 3 mps 755 mmHg 66%
    18:00 +12°C° 0 mm 3 mps 755 mmHg 66%
    19:00 +12°C° 0 mm 3 mps 755 mmHg 67%
    20:00 +12°C° 0 mm 2 mps 755 mmHg 68%
    21:00 +12°C° 0 mm 2 mps 755 mmHg 68%
    22:00 +10°C° 0 mm 2 mps 755 mmHg 68%
    23:00 +10°C° 0 mm 2 mps 755 mmHg 69%

    29 October, Sunday

    Time Temperature Precipitation Wind Pressure Humidity
    00:00 +10°C° 0 mm 2 mps 755 mmHg 68%
    01:00 +11°C° 0 mm 1 mps 754 mmHg 68%
    02:00 +11°C° 0 mm 1 mps 754 mmHg 68%
    03:00 +11°C° 0 mm 1 mps 754 mmHg 68%
    04:00 +10°C° 0 mm 1 mps 754 mmHg 69%
    05:00 +10°C° 0 mm 1 mps 753 mmHg 69%
    06:00 +10°C° 0 mm 2 mps 753 mmHg 68%
    07:00 +10°C° 0 mm 2 mps 753 mmHg 68%
    08:00 +11°C° 0 mm 3 mps 753 mmHg 67%
    09:00 +13°C° 0 mm 3 mps 752 mmHg 66%
    10:00 +14°C° 0 mm 4 mps 752 mmHg 65%
    11:00 +16°C° 0 mm 5 mps 751 mmHg 65%
    12:00 +17°C° 0 mm 5 mps 750 mmHg 64%
    13:00 +19°C° 0 mm 6 mps 750 mmHg 63%
    14:00 +20°C° 0 mm 6 mps 749 mmHg 62%
    15:00 +19°C° 0 mm 6 mps 748 mmHg 66%
    16:00 +17°C° 0 mm 5 mps 748 mmHg 71%
    17:00 +17°C° 0 mm 5 mps 747 mmHg 75%
    18:00 +17°C° 0 mm 5 mps 747 mmHg 80%
    19:00 +16°C° 0 mm 5 mps 747 mmHg 84%
    20:00 +16°C° 0 mm 6 mps 747 mmHg 88%
    21:00 +16°C° 0 mm 6 mps 746 mmHg 88%
    22:00 +16°C° 0 mm 6 mps 746 mmHg 89%
    23:00 +16°C° 0 mm 6 mps 746 mmHg 90%

    30 October, Monday

    Time Temperature Precipitation Wind Pressure Humidity
    00:00 +17°C° 0 mm 6 mps 746 mmHg 89%
    01:00 +17°C° 0 mm 7 mps 745 mmHg 88%
    02:00 +17°C° 0 mm 7 mps 745 mmHg 87%
    03:00 +17°C° 0 mm 7 mps 745 mmHg 86%
    04:00 +17°C° 0 mm 8 mps 744 mmHg 84%
    05:00 +17°C° 0 mm 8 mps 744 mmHg 83%
    06:00 +17°C° 0 mm 8 mps 744 mmHg 82%
    07:00 +18°C° 0 mm 8 mps 745 mmHg 80%
    08:00 +18°C° 0 mm 9 mps 745 mmHg 79%
    09:00 +19°C° 0 mm 9 mps 745 mmHg 71%
    10:00 +22°C° 0 mm 10 mps 745 mmHg 63%
    11:00 +23°C° 0 mm 10 mps 745 mmHg 55%
    12:00 +22°C° 0.2 mm 10 mps 745 mmHg 58%
    13:00 +21°C° 0.2 mm 10 mps 745 mmHg 60%
    14:00 +21°C° 0.2 mm 10 mps 746 mmHg 63%
    15:00 +18°C° 0.5 mm 8 mps 746 mmHg 64%
    16:00 +17°C° 0.5 mm 7 mps 746 mmHg 65%
    17:00 +16°C° 0.5 mm 6 mps 746 mmHg 66%
    18:00 +15°C° 0.2 mm 6 mps 747 mmHg 67%
    19:00 +14°C° 0.2 mm 5 mps 747 mmHg 68%
    20:00 +13°C° 0.2 mm 5 mps 747 mmHg 69%
    21:00 +12°C° 0.1 mm 5 mps 748 mmHg 70%
    22:00 +12°C° 0.1 mm 5 mps 748 mmHg 70%
    23:00 +10°C° 0.1 mm 5 mps 749 mmHg 71%
    Show more